Location: Gipe Farm
(40.9466°N, 95.5370°W)
Time: 14:40:27
(UTC-05:00)

Daily predictions for brighter satellites

Satellite Brightness Start Highest point End
(mag) Time Altitude Azimuth Time Altitude Azimuth Time Altitude Azimuth
Cosmos 1437 2.6 20:34:06 10° S 20:37:16 74° E 20:40:28 10° NNE
SL-24 R/B - RUBIN 2 4.2 20:34:01 10° NNW 20:38:10 40° NE 20:42:17 10° ESE
Cosmos 2221 3.0 20:40:41 10° SSW 20:44:54 66° W 20:49:10 10° N
Cosmos 44 Rocket 3.3 20:40:39 10° SSW 20:45:23 87° SE 20:50:18 10° NNE
Cosmos 1346 Rocket 3.8 20:41:30 10° SSW 20:45:29 53° WNW 20:49:31 10° N
Thor Agena Rocket 3.6 20:40:24 10° NNE 20:45:34 58° ESE 20:50:46 10° S
BREEZE-M DEB (TANK) 4.5 20:43:42 10° WNW 20:48:13 25° N 20:50:27 10° ENE
Cosmos 2154 Rocket 4.1 20:42:44 10° SSE 20:48:49 55° E 20:54:53 10° NNE
Cosmos 1300 3.4 20:45:09 10° SSW 20:48:55 59° W 20:52:43 10° N
Cosmos 2184 Rocket 4.2 20:46:22 10° S 20:52:33 79° W 20:58:44 10° N
OE (NEXTSAT) 4.3 20:49:30 10° WSW 20:53:03 85° SSE 20:56:38 10° ENE
Cosmos 1805 Rocket 3.5 20:50:30 10° N 20:54:52 84° E 20:59:12 10° S
Meteor 2-2 Rocket 4.5 20:49:30 10° S 20:55:09 54° E 21:00:55 10° NNE
Cosmos 2360 Rocket 3.3 20:52:14 10° SW 20:57:42 50° WNW 21:03:10 10° NNE
Resurs 01 Rocket 1.8 20:53:29 10° SSE 20:57:48 52° ENE 21:02:08 10° N
BREEZE-M DEB (TANK) 4.5 20:49:26 10° W 21:00:34 45° NNW 21:04:00 10° NE
CZ-2D R/B 4.0 20:57:55 10° S 21:01:38 54° W 21:05:23 10° NNW
Cosmos 1328 Rocket 4.2 20:57:57 10° SSE 21:01:57 35° E 21:06:00 10° NNE
Cosmos 2333 Rocket 2.5 20:58:27 10° S 21:03:48 45° ESE 21:09:10 10° NE
NOSS 2-1 (C) 3.1 21:02:32 10° SW 21:06:08 87° NW 21:10:04 10° NE
NOSS 2-1 (D) 3.2 21:03:30 10° SW 21:07:06 84° NW 21:11:04 10° NNE
Spot 2 Rocket 3.7 21:03:52 10° SSE 21:08:49 54° ENE 21:13:47 10° N
COSMOS 2428 2.7 21:03:16 10° SSW 21:08:59 86° ESE 21:14:45 10° NNE
Cosmos 2341 Rocket 4.2 21:02:57 10° SSE 21:09:05 53° E 21:15:14 10° NNE
Cosmos 2333 4.2 21:06:36 10° SSW 21:12:15 86° WNW 21:17:55 10° NNE
Cosmos 1470 Rocket 4.4 21:08:25 10° NNE 21:12:24 33° ENE 21:14:51 19° SE
ATLAS 2AS CENTAUR R/B 3.3 21:04:53 10° NNW 21:12:40 54° NE 21:18:17 18° ESE
Meteor 2-15 4.5 21:06:31 10° N 21:12:41 88° W 21:18:47 10° S
Cosmos 1455 2.3 21:09:31 10° S 21:13:12 50° E 21:16:57 10° NNE
SJ-11-01 4.2 21:11:47 10° SSE 21:16:25 70° ENE 21:21:04 10° N
Cosmos 1844 Rocket 2.7 21:11:36 10° NNW 21:17:19 84° WSW 21:22:47 11° SSE
Cosmos 962 Rocket 4.4 21:11:27 10° S 21:17:28 64° E 21:23:34 10° NNE
Cosmos 1844 3.7 21:11:56 10° NNW 21:17:39 77° ENE 21:22:30 15° SSE
Cosmos 1892 2.6 21:15:11 10° N 21:19:06 86° E 21:22:50 11° S
ERS-2 3.3 21:15:54 10° S 21:19:22 42° W 21:22:54 10° NNW
Cosmos 1408 3.6 21:21:16 10° NNE 21:24:29 28° ENE 21:25:16 26° E
Cosmos 2237 Rocket 2.6 21:20:23 10° S 21:25:32 39° ESE 21:30:43 10° NE
Cosmos 2219 Rocket 2.1 21:20:45 10° SSW 21:26:25 83° ESE 21:32:05 10° NNE
Lacrosse 5 4.5 21:25:18 10° NNW 21:27:31 13° N 21:29:44 10° NNE
ATLAS CENTAUR R/B 1.1 21:24:42 10° SSW 21:28:15 51° ESE 21:31:56 10° NE
Cosmos 1295 Rocket 4.5 21:22:34 10° S 21:28:53 74° E 21:35:12 10° N
USA 186 3.1 21:27:02 10° SSW 21:28:57 25° W 21:30:53 10° NW
Cosmos 2366 rocket 4.5 21:27:19 17° SSE 21:31:28 38° E 21:37:11 10° NNE
Genesis I 3.8 21:30:35 10° NNW 21:34:32 45° NE 21:35:58 32° ESE
Cosmos 2278 Rocket 2.6 21:29:08 10° NNW 21:34:36 46° ENE 21:37:23 26° ESE
Cosmos 1666 Rocket 4.2 21:30:48 10° NNW 21:35:12 57° W 21:39:33 10° S
NOSS 0 Rocket 3.9 21:29:16 10° S 21:35:19 60° ESE 21:41:25 10° NNE
Resurs 1-3 4.2 21:31:47 10° S 21:36:05 57° W 21:40:25 10° NNW
NOSS 2-1 (E) 4.4 21:34:03 10° SW 21:37:33 45° NW 21:41:30 10° NNE
NOAA 11 4.2 21:35:18 15° SSE 21:39:55 88° ENE 21:45:28 10° NNW
YAOGAN 6 4.2 21:37:04 10° SSW 21:40:20 34° W 21:43:41 10° NNW
H-2A R/B 2.8 21:39:08 27° ESE 21:40:45 33° ENE 21:45:13 10° N
Cosmos 1933 Rocket 3.6 21:36:58 10° N 21:41:18 56° E 21:42:57 34° SE
SL-8 Rocket 4.0 21:35:25 10° S 21:41:37 63° E 21:47:50 10° NNE
OAO 2 Rocket 4.1 21:37:26 10° WSW 21:42:11 37° SSW 21:43:55 28° SSE
NOSS 3-3 (A) 4.2 21:43:22 10° SW 21:49:22 75° NW 21:56:00 10° NNE
NOSS 3-3 (C) 4.1 21:43:28 10° SW 21:49:28 75° NW 21:56:06 10° NNE
ERS-1 Rocket 3.6 21:50:18 33° ESE 21:51:35 38° ENE 21:56:12 10° N
Cosmos 1371 Rocket 4.3 21:50:10 29° SSE 21:52:22 45° ESE 21:57:27 10° NNE
Cosmos 1151 Rocket 2.9 21:50:11 19° S 21:53:13 88° E 21:57:30 10° N
Cosmos 220 Rocket 4.0 21:49:52 10° NNW 21:54:13 77° WSW 21:55:55 36° S
USA 267 3.5 21:51:47 10° ENE 21:57:57 43° SE 22:04:04 10° SSW
Cosmos 1825 2.0 21:59:06 10° N 22:02:55 81° E 22:03:17 70° SSE
Cosmos 2344 4.2 22:10:53 32° ESE 22:10:53 32° ESE 22:17:12 10° NE
Cosmos 1869 3.1 22:10:13 70° SSE 22:10:37 84° E 22:14:40 10° N
Cosmos 2098 Rocket 3.0 22:11:35 49° S 22:12:49 77° E 22:16:51 10° N
Cosmos 2228 Rocket 3.8 22:09:26 13° SSW 22:13:14 53° W 22:17:32 10° N
Cosmos 864 Rocket 4.3 22:10:20 25° S 22:14:04 80° E 22:20:13 10° N
Cosmos 2056 Rocket 3.6 22:13:06 49° SE 22:14:04 57° ESE 22:19:22 10° NNE
SL-16 R/B 2.8 22:15:04 37° E 22:15:04 37° E 22:19:25 10° NE
Helios 1B rocket 4.4 22:13:00 10° NE 22:14:22 18° NE 22:14:22 18° NE
SL-8 R/B 3.5 22:13:47 10° SW 22:18:34 81° SSE 22:19:41 53° ENE
Cosmos 405 4.2 22:16:31 10° N 22:18:45 33° NNE 22:18:45 33° NNE
Helios 1A 3.4 22:26:20 52° NE 22:26:20 52° NE 22:29:55 10° N
ARGOS 3.3 22:26:04 43° S 22:27:48 71° WSW 22:33:10 10° NNW
GEOS 3 Rocket 3.5 22:25:21 10° NE 22:30:44 90° SE 22:36:00 10° SW
SL-08 RB Rocket 3.6 22:31:04 74° SW 22:31:20 78° WSW 22:35:50 10° NNW
Cosmos 1624 Rocket 3.8 22:30:21 57° S 22:31:28 86° ESE 22:36:41 10° NNE
Resurs 01 Rocket 4.3 22:32:12 10° SW 22:34:34 14° W 22:36:58 10° WNW
MetOp-B 4.3 22:33:14 49° SSW 22:34:36 69° WSW 22:39:58 10° NNW
Cosmos 1190 Rocket 3.9 22:31:12 10° NNW 22:36:30 72° ENE 22:36:40 71° E
Landsat 7 4.4 22:42:33 46° NE 22:42:33 46° NE 22:46:25 10° N
Cosmos 2297 3.7 22:39:03 10° NNW 22:44:43 67° ENE 22:44:54 66° ENE
Cosmos 1140 Rocket 4.2 22:42:04 10° N 22:46:26 42° NE 22:46:26 42° NE
Cosmos 1727 Rocket 4.1 22:41:57 10° NNW 22:48:06 70° W 22:49:42 50° SSW
Cosmos 2333 Rocket 4.2 22:43:28 10° WSW 22:48:14 27° NW 22:53:02 10° N
Cosmos 1821 Rocket 4.1 22:53:04 58° E 22:53:04 58° E 22:59:02 10° NNE
Meteor 2-10 Rocket 4.3 22:52:18 33° SW 22:54:43 56° WNW 23:00:27 10° N
Cosmos 2369 Rocket 4.0 22:51:02 10° N 22:55:01 19° NE 22:55:14 19° NE
Cosmos 1862 4.5 22:51:20 10° NNW 22:54:06 41° NNW 22:54:06 41° NNW
DMSP B5D2-2 4.0 22:53:51 10° NNE 22:59:00 81° NW 22:59:00 81° NW
Terra 2.8 23:00:47 39° NNE 23:00:47 39° NNE 23:04:08 10° N
ATLAS 2AS CENTAUR R/B 3.9 22:56:28 10° NW 23:03:22 36° WSW 23:05:44 29° SW
ATLAS CENTAUR R/B 4.2 23:05:16 10° W 23:07:32 15° NW 23:09:52 10° N
SPOT 5 3.5 23:10:04 50° NW 23:10:04 50° NW 23:13:40 10° NNW
Cosmos 2123 Rocket 4.5 23:03:24 10° N 23:08:49 47° ENE 23:08:49 47° ENE
Cosmos 2237 Rocket 3.9 23:04:43 10° WSW 23:09:38 31° WNW 23:14:36 10° N
SPOT 1/Viking Rocket 3.9 23:11:59 63° WNW 23:11:59 63° WNW 23:16:45 10° NNW
Lacrosse 5 3.9 23:08:41 10° NNW 23:12:21 19° NNE 23:13:25 18° NE
Cosmos 2278 Rocket 3.8 23:13:50 10° NW 23:18:21 25° WSW 23:19:14 24° WSW
CZ-2C R/B 4.4 23:14:41 10° NNE 23:16:47 22° NE 23:16:47 22° NE
H-2A R/B 3.5 23:19:44 28° WSW 23:20:10 28° W 23:24:28 10° NW
CZ-4C R/B 4.2 23:26:51 18° NE 23:26:51 18° NE 23:28:22 10° NE
ATLAS 5 CENTAUR R/B 3.8 23:25:53 10° NNW 23:30:49 27° NE 23:31:12 27° NE
NOSS 3-4 (A) 3.9 23:27:02 10° NW 23:34:05 66° WSW 23:34:10 66° SW
NOSS 3-4 (C) 3.9 23:27:08 10° NW 23:34:11 67° WSW 23:34:16 67° SW
USA 267 3.7 23:34:40 10° NE 23:41:03 58° NW 23:47:24 10° WSW
BREEZE-M DEB (TANK) 4.1 23:18:42 10° WNW 23:43:39 87° NNE 23:44:23 76° ESE
